| time (UTC) | temp F | wind direction | speed knots | gust knots | rain 1hr in | rain 24hr in | rain mn in | humidity % | barometer mb |
| 20260504224022 | 83 | 234 | 6.1 | 0.0 | 0.00 | 0.00 | 0.00 | 58 | 1008.9 |
| 20260504223604 | 83 | 146 | 6.1 | 0.0 | 0.00 | 0.00 | 0.00 | 57 | 1008.9 |
| 20260504223002 | 83 | 98 | 5.2 | 0.0 | 0.00 | 0.00 | 0.00 | 58 | 1009.0 |
| 20260504222540 | 83 | 147 | 5.2 | 0.0 | 0.00 | 0.00 | 0.00 | 57 | 1009.1 |
| 20260504222009 | 82 | 182 | 6.1 | 0.0 | 0.00 | 0.00 | 0.00 | 59 | 1009.1 |
| 20260504221517 | 82 | 148 | 7.0 | 0.0 | 0.00 | 0.00 | 0.00 | 58 | 1009.1 |
| 20260504221056 | 82 | 145 | 7.0 | 0.0 | 0.00 | 0.00 | 0.00 | 58 | 1009.2 |
| 20260504220532 | 82 | 155 | 7.0 | 0.0 | 0.00 | 0.00 | 0.00 | 58 | 1009.2 |
| 20260504220040 | 82 | 115 | 7.0 | 0.0 | 0.00 | 0.00 | 0.00 | 59 | 1009.2 |
| 20260504215511 | 83 | 188 | 5.2 | 0.0 | 0.00 | 0.00 | 0.00 | 58 | 1009.3 |
| 20260504215051 | 82 | 150 | 5.2 | 0.0 | 0.00 | 0.00 | 0.00 | 59 | 1009.4 |
| 20260504214557 | 82 | 138 | 7.0 | 0.0 | 0.00 | 0.00 | 0.00 | 59 | 1009.4 |
| 20260504214029 | 82 | 112 | 7.0 | 0.0 | 0.00 | 0.00 | 0.00 | 58 | 1009.3 |
| 20260504213501 | 82 | 152 | 7.0 | 0.0 | 0.00 | 0.00 | 0.00 | 59 | 1009.4 |
| 20260504213102 | 82 | 191 | 6.1 | 0.0 | 0.00 | 0.00 | 0.00 | 58 | 1009.4 |
| 20260504212529 | 82 | 153 | 5.2 | 0.0 | 0.00 | 0.00 | 0.00 | 59 | 1009.7 |
| 20260504212008 | 82 | 132 | 6.1 | 0.0 | 0.00 | 0.00 | 0.00 | 59 | 1009.8 |
| 20260504211619 | 82 | 134 | 5.2 | 0.0 | 0.00 | 0.00 | 0.00 | 59 | 1009.9 |
| 20260504211034 | 82 | 132 | 5.2 | 0.0 | 0.00 | 0.00 | 0.00 | 58 | 1010.0 |
| 20260504210507 | 82 | 188 | 5.2 | 0.0 | 0.00 | 0.00 | 0.00 | 58 | 1010.3 |
| 20260504205539 | 82 | 140 | 7.0 | 0.0 | 0.00 | 0.00 | 0.00 | 59 | 1010.3 |
| 20260504205010 | 81 | 173 | 6.1 | 0.0 | 0.00 | 0.00 | 0.00 | 60 | 1010.5 |
| 20260504204514 | 81 | 163 | 6.1 | 0.0 | 0.00 | 0.00 | 0.00 | 59 | 1010.5 |
| 20260504204052 | 81 | 104 | 6.1 | 0.0 | 0.00 | 0.00 | 0.00 | 59 | 1010.7 |
| 20260504203529 | 81 | 146 | 6.1 | 0.0 | 0.00 | 0.00 | 0.00 | 59 | 1010.7 |
| 20260504203034 | 81 | 132 | 7.0 | 0.0 | 0.00 | 0.00 | 0.00 | 59 | 1010.7 |
| 20260504202511 | 82 | 183 | 5.2 | 0.0 | 0.00 | 0.00 | 0.00 | 58 | 1010.8 |
| 20260504202043 | 82 | 149 | 5.2 | 0.0 | 0.00 | 0.00 | 0.00 | 59 | 1011.0 |
| 20260504201549 | 81 | 141 | 5.2 | 0.0 | 0.00 | 0.00 | 0.00 | 59 | 1011.0 |
| 20260504201018 | 81 | 149 | 4.3 | 0.0 | 0.00 | 0.00 | 0.00 | 59 | 1011.1 |
| 20260504200553 | 81 | 138 | 4.3 | 0.0 | 0.00 | 0.00 | 0.00 | 59 | 1011.2 |
| 20260504200059 | 81 | 180 | 5.2 | 0.0 | 0.00 | 0.00 | 0.00 | 59 | 1011.4 |
| 20260504195535 | 80 | 138 | 5.2 | 0.0 | 0.00 | 0.00 | 0.00 | 59 | 1011.3 |
| 20260504195011 | 80 | 146 | 5.2 | 0.0 | 0.00 | 0.00 | 0.00 | 61 | 1011.5 |
| 20260504194515 | 80 | 194 | 5.2 | 0.0 | 0.00 | 0.00 | 0.00 | 60 | 1011.7 |
| 20260504194054 | 80 | 171 | 6.1 | 0.0 | 0.00 | 0.00 | 0.00 | 60 | 1011.8 |
| 20260504193526 | 80 | 143 | 5.2 | 0.0 | 0.00 | 0.00 | 0.00 | 60 | 1011.8 |
| 20260504193029 | 80 | 141 | 5.2 | 0.0 | 0.00 | 0.00 | 0.00 | 61 | 1011.7 |
| 20260504192504 | 80 | 205 | 5.2 | 0.0 | 0.00 | 0.00 | 0.00 | 61 | 1012.0 |
| 20260504192047 | 80 | 139 | 5.2 | 0.0 | 0.00 | 0.00 | 0.00 | 61 | 1012.0 |
| 20260504191541 | 80 | 163 | 5.2 | 0.0 | 0.00 | 0.00 | 0.00 | 60 | 1012.2 |
| 20260504191017 | 80 | 205 | 5.2 | 0.0 | 0.00 | 0.00 | 0.00 | 62 | 1012.2 |
| 20260504190556 | 79 | 215 | 5.2 | 0.0 | 0.00 | 0.00 | 0.00 | 62 | 1012.2 |
| 20260504190045 | 78 | 188 | 5.2 | 0.0 | 0.00 | 0.00 | 0.00 | 62 | 1012.3 |
| 20260504185519 | 78 | 186 | 5.2 | 0.0 | 0.00 | 0.00 | 0.00 | 62 | 1012.4 |
| 20260504185058 | 78 | 186 | 5.2 | 0.0 | 0.00 | 0.00 | 0.00 | 63 | 1012.4 |
| 20260504184547 | 78 | 184 | 6.1 | 0.0 | 0.00 | 0.00 | 0.00 | 64 | 1012.6 |
| 20260504184022 | 77 | 183 | 6.1 | 0.0 | 0.00 | 0.00 | 0.00 | 63 | 1012.5 |
| 20260504183559 | 78 | 130 | 5.2 | 0.0 | 0.00 | 0.00 | 0.00 | 63 | 1012.6 |
| 20260504183107 | 78 | 163 | 4.3 | 0.0 | 0.00 | 0.00 | 0.00 | 65 | 1012.6 |
| 20260504182532 | 77 | 186 | 4.3 | 0.0 | 0.00 | 0.00 | 0.00 | 64 | 1012.8 |
| 20260504182008 | 77 | 155 | 5.2 | 0.0 | 0.00 | 0.00 | 0.00 | 64 | 1012.9 |
| 20260504181600 | 77 | 213 | 5.2 | 0.0 | 0.00 | 0.00 | 0.00 | 64 | 1012.9 |
| 20260504181033 | 77 | 117 | 4.3 | 0.0 | 0.00 | 0.00 | 0.00 | 64 | 1013.1 |
| 20260504180513 | 76 | 139 | 5.2 | 0.0 | 0.00 | 0.00 | 0.00 | 66 | 1013.1 |
| 20260504180018 | 76 | 138 | 5.2 | 0.0 | 0.00 | 0.00 | 0.00 | 66 | 1013.2 |
| 20260504175557 | 76 | 178 | 3.5 | 0.0 | 0.00 | 0.00 | 0.00 | 65 | 1013.3 |
| 20260504175029 | 76 | 232 | 4.3 | 0.0 | 0.00 | 0.00 | 0.00 | 66 | 1013.3 |
| 20260504174530 | 76 | 143 | 3.5 | 0.0 | 0.00 | 0.00 | 0.00 | 66 | 1013.4 |
| 20260504174002 | 75 | 163 | 2.6 | 0.0 | 0.00 | 0.00 | 0.00 | 69 | 1013.5 |
| 20260504173541 | 74 | 184 | 3.5 | 0.0 | 0.00 | 0.00 | 0.00 | 69 | 1013.5 |
| 20260504173045 | 74 | 182 | 4.3 | 0.0 | 0.00 | 0.00 | 0.00 | 67 | 1013.6 |
| 20260504172518 | 75 | 213 | 4.3 | 0.0 | 0.00 | 0.00 | 0.00 | 67 | 1013.9 |
| 20260504172057 | 75 | 146 | 3.5 | 0.0 | 0.00 | 0.00 | 0.00 | 66 | 1013.9 |
| 20260504171602 | 75 | 266 | 2.6 | 0.0 | 0.00 | 0.00 | 0.00 | 69 | 1014.1 |
| 20260504171036 | 75 | 155 | 2.6 | 0.0 | 0.00 | 0.00 | 0.00 | 67 | 1014.2 |
| 20260504170510 | 75 | 199 | 2.6 | 0.0 | 0.00 | 0.00 | 0.00 | 68 | 1014.4 |
| 20260504151044 | 71 | 155 | 6.1 | 0.0 | 0.00 | 0.00 | 0.00 | 72 | 1014.8 |
| 20260504150523 | 70 | 186 | 5.2 | 0.0 | 0.00 | 0.00 | 0.00 | 72 | 1014.8 |
| 20260504141039 | 67 | 156 | 4.3 | 0.0 | 0.00 | 0.00 | 0.00 | 75 | 1015.0 |
| 20260504140514 | 67 | 139 | 4.3 | 0.0 | 0.00 | 0.00 | 0.00 | 76 | 1014.9 |
| 20260504130552 | 62 | 135 | 2.6 | 0.0 | 0.00 | 0.00 | 0.00 | 84 | 1015.0 |
| 20260504110506 | 61 | 144 | 2.6 | 0.0 | 0.00 | 0.00 | 0.00 | 82 | 1014.6 |
| 20260504100555 | 61 | 162 | 3.5 | 0.0 | 0.00 | 0.00 | 0.00 | 81 | 1015.0 |
| 20260504081530 | 62 | 156 | 1.7 | 0.0 | 0.00 | 0.00 | 0.00 | 79 | 1015.3 |
| 20260504081107 | 62 | 173 | 1.7 | 0.0 | 0.00 | 0.00 | 0.00 | 78 | 1015.4 |
| 20260504080543 | 62 | 150 | 1.7 | 0.0 | 0.00 | 0.00 | 0.00 | 78 | 1015.4 |
| 20260504050559 | 66 | 149 | 3.5 | 0.0 | 0.00 | 0.00 | 0.00 | 65 | 1017.4 |
| 20260504045516 | 66 | 139 | 4.3 | 0.0 | 0.00 | 0.00 | 0.00 | 64 | 1017.6 |
| 20260504045058 | 65 | 146 | 3.5 | 0.0 | 0.00 | 0.00 | 0.00 | 65 | 1017.5 |
| 20260504044603 | 65 | 152 | 2.6 | 0.0 | 0.00 | 0.00 | 0.00 | 65 | 1017.6 |
| 20260504044035 | 64 | 147 | 2.6 | 0.0 | 0.00 | 0.00 | 0.00 | 65 | 1017.7 |
| 20260504043511 | 64 | 158 | 2.6 | 0.0 | 0.00 | 0.00 | 0.00 | 65 | 1017.8 |
| 20260504043017 | 63 | 163 | 1.7 | 0.0 | 0.00 | 0.00 | 0.00 | 67 | 1017.8 |
| 20260504042550 | 63 | 139 | 1.7 | 0.0 | 0.00 | 0.00 | 0.00 | 68 | 1017.8 |
| 20260504042023 | 62 | 139 | 0.9 | 0.0 | 0.00 | 0.00 | 0.00 | 69 | 1017.7 |
| 20260504041527 | 61 | 139 | 0.0 | 0.0 | 0.00 | 0.00 | 0.00 | 70 | 1017.8 |
| 20260504041107 | 61 | 139 | 0.0 | 0.0 | 0.00 | 0.00 | 0.00 | 71 | 1017.8 |
| 20260504040542 | 61 | 139 | 0.0 | 0.0 | 0.00 | 0.00 | 0.00 | 72 | 1017.7 |
| 20260504040049 | 61 | 139 | 0.0 | 0.0 | 0.00 | 0.00 | 0.00 | 71 | 1017.7 |
| 20260504035519 | 61 | 139 | 0.0 | 0.0 | 0.00 | 0.00 | 0.00 | 71 | 1017.8 |
| 20260504035054 | 61 | 139 | 0.0 | 0.0 | 0.00 | 0.00 | 0.00 | 72 | 1017.9 |
| 20260504034543 | 61 | 139 | 0.0 | 0.0 | 0.00 | 0.00 | 0.00 | 72 | 1017.9 |
| 20260504034016 | 61 | 139 | 0.0 | 0.0 | 0.00 | 0.00 | 0.00 | 71 | 1017.9 |
| 20260504033551 | 62 | 139 | 0.0 | 0.0 | 0.00 | 0.00 | 0.00 | 70 | 1018.0 |
| 20260504033056 | 62 | 139 | 0.0 | 0.0 | 0.00 | 0.00 | 0.00 | 70 | 1017.9 |
| 20260504032525 | 62 | 139 | 0.0 | 0.0 | 0.00 | 0.00 | 0.00 | 69 | 1017.7 |
| 20260504032004 | 63 | 139 | 0.0 | 0.0 | 0.00 | 0.00 | 0.00 | 68 | 1017.8 |
| 20260504031505 | 63 | 139 | 0.0 | 0.0 | 0.00 | 0.00 | 0.00 | 66 | 1017.9 |
| 20260504031041 | 64 | 139 | 0.0 | 0.0 | 0.00 | 0.00 | 0.00 | 65 | 1017.8 |
| 20260504030514 | 64 | 139 | 0.0 | 0.0 | 0.00 | 0.00 | 0.00 | 65 | 1017.9 |
| 20260504030021 | 65 | 139 | 0.0 | 0.0 | 0.00 | 0.00 | 0.00 | 63 | 1017.9 |
| 20260504025555 | 65 | 139 | 0.0 | 0.0 | 0.00 | 0.00 | 0.00 | 62 | 1017.9 |
| 20260504025033 | 65 | 139 | 0.0 | 0.0 | 0.00 | 0.00 | 0.00 | 62 | 1017.8 |
| 20260504024538 | 66 | 139 | 0.0 | 0.0 | 0.00 | 0.00 | 0.00 | 60 | 1017.7 |
| 20260504024008 | 66 | 139 | 0.0 | 0.0 | 0.00 | 0.00 | 0.00 | 59 | 1018.0 |
| 20260504023544 | 67 | 139 | 0.0 | 0.0 | 0.00 | 0.00 | 0.00 | 58 | 1017.9 |
| 20260504023034 | 67 | 139 | 0.0 | 0.0 | 0.00 | 0.00 | 0.00 | 57 | 1017.7 |
| 20260504022511 | 67 | 139 | 0.0 | 0.0 | 0.00 | 0.00 | 0.00 | 56 | 1017.7 |
| 20260504022045 | 67 | 139 | 0.0 | 0.0 | 0.00 | 0.00 | 0.00 | 56 | 1017.6 |
| 20260504021534 | 68 | 139 | 0.0 | 0.0 | 0.00 | 0.00 | 0.00 | 55 | 1017.6 |
| 20260504021007 | 68 | 139 | 0.0 | 0.0 | 0.00 | 0.00 | 0.00 | 54 | 1017.7 |
| 20260504020545 | 68 | 139 | 0.0 | 0.0 | 0.00 | 0.00 | 0.00 | 53 | 1017.7 |
| 20260504020049 | 69 | 139 | 0.0 | 0.0 | 0.00 | 0.00 | 0.00 | 52 | 1017.6 |
| 20260504015522 | 69 | 139 | 0.0 | 0.0 | 0.00 | 0.00 | 0.00 | 52 | 1017.4 |
| 20260504015103 | 70 | 139 | 0.0 | 0.0 | 0.00 | 0.00 | 0.00 | 52 | 1017.3 |
| 20260504014504 | 70 | 139 | 0.9 | 0.0 | 0.00 | 0.00 | 0.00 | 49 | 1017.3 |
| 20260504014038 | 70 | 139 | 0.9 | 0.0 | 0.00 | 0.00 | 0.00 | 48 | 1017.3 |
| 20260504013515 | 71 | 139 | 0.9 | 0.0 | 0.00 | 0.00 | 0.00 | 48 | 1017.2 |
| 20260504013018 | 71 | 139 | 0.9 | 0.0 | 0.00 | 0.00 | 0.00 | 47 | 1017.2 |
| 20260504012555 | 71 | 139 | 0.9 | 0.0 | 0.00 | 0.00 | 0.00 | 47 | 1017.1 |
| 20260504012021 | 72 | 139 | 1.7 | 0.0 | 0.00 | 0.00 | 0.00 | 46 | 1017.2 |
| 20260504011528 | 72 | 139 | 1.7 | 0.0 | 0.00 | 0.00 | 0.00 | 46 | 1017.2 |
| 20260504011101 | 72 | 139 | 1.7 | 0.0 | 0.00 | 0.00 | 0.00 | 46 | 1017.2 |
| 20260504010534 | 73 | 139 | 1.7 | 0.0 | 0.00 | 0.00 | 0.00 | 45 | 1017.3 |
| 20260504010039 | 73 | 154 | 1.7 | 0.0 | 0.00 | 0.00 | 0.00 | 45 | 1017.2 |
| 20260504005509 | 73 | 168 | 1.7 | 0.0 | 0.00 | 0.00 | 0.00 | 44 | 1017.2 |
| 20260504005048 | 73 | 175 | 2.6 | 0.0 | 0.00 | 0.00 | 0.00 | 44 | 1017.2 |
| 20260504004549 | 74 | 202 | 3.5 | 0.0 | 0.00 | 0.00 | 0.00 | 43 | 1017.2 |
| 20260504004022 | 74 | 146 | 3.5 | 0.0 | 0.00 | 0.00 | 0.00 | 43 | 1017.2 |
| 20260504003600 | 74 | 143 | 2.6 | 0.0 | 0.00 | 0.00 | 0.00 | 43 | 1017.1 |
| 20260504003108 | 74 | 150 | 2.6 | 0.0 | 0.00 | 0.00 | 0.00 | 42 | 1017.2 |
| 20260504002543 | 75 | 140 | 3.5 | 0.0 | 0.00 | 0.00 | 0.00 | 42 | 1017.3 |
| 20260504002018 | 75 | 121 | 3.5 | 0.0 | 0.00 | 0.00 | 0.00 | 42 | 1017.3 |
| 20260504001527 | 75 | 133 | 3.5 | 0.0 | 0.00 | 0.00 | 0.00 | 42 | 1017.3 |
| 20260504001100 | 75 | 167 | 3.5 | 0.0 | 0.00 | 0.00 | 0.00 | 42 | 1017.3 |
| 20260504000536 | 75 | 182 | 3.5 | 0.0 | 0.00 | 0.00 | 0.00 | 42 | 1017.5 |
| 20260504000051 | 75 | 138 | 3.5 | 0.0 | 0.00 | 0.00 | 0.00 | 41 | 1017.6 |
| 20260503235502 | 75 | 149 | 2.6 | 0.0 | 0.00 | 0.00 | 0.00 | 40 | 1017.6 |
| 20260503235043 | 76 | 149 | 2.6 | 0.0 | 0.00 | 0.00 | 0.00 | 39 | 1017.7 |
| 20260503234542 | 76 | 150 | 3.5 | 0.0 | 0.00 | 0.00 | 0.00 | 39 | 1017.6 |
| 20260503234005 | 76 | 150 | 3.5 | 0.0 | 0.00 | 0.00 | 0.00 | 39 | 1017.6 |
| 20260503233547 | 76 | 136 | 3.5 | 0.0 | 0.00 | 0.00 | 0.00 | 39 | 1017.7 |
| 20260503233036 | 76 | 133 | 2.6 | 0.0 | 0.00 | 0.00 | 0.00 | 38 | 1017.8 |
| 20260503232511 | 76 | 147 | 2.6 | 0.0 | 0.00 | 0.00 | 0.00 | 38 | 1017.8 |
| 20260503232047 | 76 | 122 | 3.5 | 0.0 | 0.00 | 0.00 | 0.00 | 37 | 1017.9 |
| 20260503231534 | 77 | 158 | 4.3 | 0.0 | 0.00 | 0.00 | 0.00 | 36 | 1017.8 |
| 20260503231010 | 78 | 121 | 4.3 | 0.0 | 0.00 | 0.00 | 0.00 | 36 | 1017.7 |
| 20260503230545 | 78 | 140 | 4.3 | 0.0 | 0.00 | 0.00 | 0.00 | 35 | 1017.6 |
| 20260503230034 | 78 | 141 | 4.3 | 0.0 | 0.00 | 0.00 | 0.00 | 36 | 1017.7 |
| 20260503225509 | 78 | 153 | 5.2 | 0.0 | 0.00 | 0.00 | 0.00 | 36 | 1017.7 |
| 20260503225052 | 78 | 140 | 4.3 | 0.0 | 0.00 | 0.00 | 0.00 | 36 | 1017.7 |
| 20260503224557 | 78 | 120 | 4.3 | 0.0 | 0.00 | 0.00 | 0.00 | 36 | 1018.0 |